[[{"header":{"parameterUnit":"m.s-1","parameterCategory":1,"la1":30.2991,"la2":30.254,"lo1":-89.0895,"lo2":-89.0444,"dy":0.0017,"dx":0.0017,"nx":28,"ny":28,"refTime":"2023-09-01T09:00:00:Z","depth":0,"parameterNumber":2,"parameterNumberName":"U-component_of_WINDS"},"data":[0,0,0,0,0,0,0,0,0,0,0,0,0,0,0,0,0,0,0,0,0,0,0,0,0,0,0,0,0,0,0,0,0,0,0,0,0,0,0,0,0,0,0,0,0,0,0,0,0,0,0,0,0,0,0,0,0,0,-2.1394,-2.1394,0,-2.1378,-2.1378,-2.1378,-2.1368,-2.1368,-2.1368,-2.1368,-2.135,-2.135,-2.1349,0,0,0,0,0,0,0,0,0,0,0,0,0,-2.1413,-2.1413,-2.1394,-2.1394,-2.1393,-2.1378,-2.1378,-2.1378,-2.1368,-2.1368,-2.1368,-2.1368,-2.135,-2.135,-2.1349,0,0,0,0,0,0,0,0,0,0,0,0,0,-2.1402,-2.1413,-2.1394,-2.1387,-2.1386,-2.1378,-2.1378,-2.1378,-2.1368,-2.1368,-2.1368,-2.1368,-2.1351,-2.135,-2.1349,-2.1347,0,0,-2.1347,-2.1347,0,0,0,0,0,0,0,0,-2.1403,-2.1401,-2.1388,-2.1387,-2.1386,-2.1375,-2.1378,-2.1367,-2.1368,-2.1375,-2.1368,-2.1368,-2.1358,-2.1357,-2.1354,-2.1346,-2.1345,-2.1347,-2.1347,-2.1347,-2.1346,0,0,0,0,0,0,0,-2.1403,-2.1402,-2.1388,-2.1388,-2.1387,-2.1384,-2.1382,-2.1376,-2.1367,-2.1374,-2.1374,-2.1372,-2.1358,-2.1355,-2.1354,-2.1345,-2.1347,-2.1347,-2.1346,-2.1346,-2.1333,-2.1333,0,0,0,0,0,0,-2.1406,-2.1403,-2.1388,-2.1387,-2.1395,-2.1384,-2.1382,-2.1379,-2.1367,-2.1365,-2.1372,-2.1371,-2.1356,-2.1355,-2.1353,-2.1349,-2.1347,-2.1346,-2.1346,-2.1333,-2.1333,-2.1333,0,0,0,0,0,0,-2.1406,-2.1404,-2.1389,-2.1395,-2.1392,-2.1383,-2.138,-2.1378,-2.1375,-2.1366,-2.1364,-2.1371,-2.1356,-2.1354,-2.1349,-2.1349,-2.1346,-2.1345,-2.1333,-2.1333,-2.1333,-2.1342,0,0,0,0,0,0,-2.1407,-2.1405,-2.1404,-2.1395,-2.1392,-2.1385,-2.138,-2.1378,-2.1375,-2.1374,-2.1364,-2.1362,-2.1356,-2.135,-2.1348,-2.1348,-2.1345,-2.1333,-2.1333,-2.1333,-2.1341,-2.1342,-2.1343,0,0,0,0,0,-2.1407,-2.1407,-2.1404,-2.1402,-2.1391,-2.1385,-2.1383,-2.1377,-2.1375,-2.1374,-2.1367,-2.1362,-2.1349,-2.1349,-2.1347,-2.1347,-2.1333,-2.1333,-2.1333,-2.1341,-2.1342,-2.1343,0,0,0,0,0,0,-2.1416,-2.1405,-2.1402,-2.1399,-2.1393,-2.1383,-2.1382,-2.1378,-2.1372,-2.1371,-2.1363,-2.136,-2.1356,-2.135,-2.1351,-2.1343,-2.134,-2.134,-2.1347,-2.1348,-2.1348,-2.1349,-2.1344,0,0,0,0,0,-2.1417,-2.1413,-2.1404,-2.1402,-2.1399,-2.1391,-2.1388,-2.1383,-2.1377,-2.1374,-2.1367,-2.136,-2.1354,-2.1351,-2.1345,-2.1341,-2.1338,-2.1339,-2.134,-2.134,-2.134,-2.1337,-2.1337,-2.1334,-2.1334,-2.1334,0,0,-2.142,-2.1414,-2.1412,-2.1404,-2.1398,-2.1394,-2.1389,-2.1385,-2.1381,-2.1373,-2.1368,-2.1362,-2.1354,-2.1349,-2.1347,-2.1345,-2.1341,-2.1341,-2.1341,-2.1341,-2.1337,-2.1338,-2.1338,-2.1334,-2.1334,-2.1334,0,0,-2.1423,-2.1418,-2.1416,-2.1411,-2.1403,-2.1398,-2.1397,-2.1388,-2.1385,-2.1379,-2.1373,-2.1368,-2.1359,-2.1353,-2.1349,-2.1349,-2.1345,-2.1348,-2.1351,-2.1348,-2.1348,-2.1348,-2.1348,-2.1348,-2.1347,-2.1348,-2.1348,0,-2.1427,-2.1421,-2.1415,-2.1411,-2.1407,-2.14,-2.1397,-2.1392,-2.1383,-2.138,-2.1379,-2.1366,-2.136,-2.1354,-2.1354,-2.1351,-2.1349,-2.1349,-2.1349,-2.1349,-2.1349,-2.1349,-2.1349,-2.1348,-2.1348,-2.1348,-2.1348,0,-2.1427,-2.1423,-2.1421,-2.1413,-2.1409,-2.1406,-2.1398,-2.1395,-2.1391,-2.1385,-2.1379,-2.1372,-2.1364,-2.1362,-2.1358,-2.1355,-2.1354,-2.1351,-2.1347,-2.135,-2.135,-2.1349,-2.1349,-2.1348,-2.1348,-2.1348,0,0,-2.1435,-2.1423,-2.1423,-2.1419,-2.141,-2.1406,-2.1402,-2.1395,-2.1392,-2.1386,-2.1382,-2.1374,-2.1371,-2.1366,-2.1361,-2.1358,-2.1359,-2.1355,-2.1355,-2.1356,-2.1355,-2.1357,-2.1358,-2.1356,-2.1356,-2.1356,-2.1356,0,-2.1436,-2.1429,-2.1423,-2.1418,-2.1414,-2.1407,-2.1404,-2.1398,-2.1392,-2.1387,-2.1381,-2.1376,-2.1372,-2.1369,-2.1366,-2.136,-2.1359,-2.136,-2.1351,-2.1351,-2.1354,-2.1357,-2.136,-2.136,-2.1355,-2.1355,-2.1355,0,-2.1437,-2.1432,-2.1426,-2.1418,-2.1416,-2.1413,-2.1406,-2.1402,-2.1394,-2.1391,-2.1385,-2.138,-2.1375,-2.1372,-2.1364,-2.1365,-2.1361,-2.1357,-2.1357,-2.1356,-2.1353,-2.1356,-2.136,-2.136,-2.1355,-2.1355,-2.1355,0,-2.1443,-2.1434,-2.143,-2.1427,-2.1417,-2.1415,-2.1411,-2.1403,-2.1399,-2.1393,-2.139,-2.1383,-2.1379,-2.1374,-2.1366,-2.1365,-2.1359,-2.1356,-2.1355,-2.1355,-2.1354,-2.1354,-2.1357,-2.1352,-2.1352,-2.1352,-2.1352,0,-2.1445,-2.1442,-2.1432,-2.143,-2.1426,-2.1419,-2.1415,-2.141,-2.1404,-2.1399,-2.1393,-2.1389,-2.1379,-2.1374,-2.1368,-2.1362,-2.1361,-2.1357,-2.1355,-2.1357,-2.1358,-2.1355,-2.1354,-2.1352,-2.1352,-2.1352,-2.1352,0,-2.1451,-2.1444,-2.1439,-2.143,-2.1428,-2.1426,-2.1418,-2.1415,-2.1409,-2.1404,-2.1402,-2.1393,-2.1386,-2.1379,-2.1369,-2.1365,-2.136,-2.1357,-2.1362,-2.1361,-2.1361,-2.1361,-2.1362,-2.1362,-2.1357,-2.1357,-2.1357,0,-2.1452,-2.145,-2.1441,-2.1438,-2.1434,-2.1429,-2.1426,-2.1418,-2.1414,-2.1406,-2.1404,-2.1397,-2.1391,-2.138,-2.1372,-2.1365,-2.1362,-2.1363,-2.1361,-2.1363,-2.1362,-2.1362,-2.1362,-2.1364,-2.1364,-2.1364,-2.1364,0,-2.1456,-2.1453,-2.1448,-2.1442,-2.1438,-2.1433,-2.1427,-2.1425,-2.1416,-2.1412,-2.1405,-2.1401,-2.1391,-2.1384,-2.1376,-2.1371,-2.1366,-2.1365,-2.1364,-2.1366,-2.1369,-2.1367,-2.1364,-2.1364,-2.1364,-2.1364,-2.1364,-2.1364,-2.1459,-2.1457,-2.145,-2.1445,-2.144,-2.1435,-2.1432,-2.1426,-2.1421,-2.1413,-2.1409,-2.1402,-2.1394,-2.1383,-2.1378,-2.1372,-2.137,-2.1369,-2.1369,-2.1369,-2.1369,-2.137,-2.137,-2.137,-2.137,-2.137,-2.137,0,-2.1463,-2.1458,-2.1453,-2.1446,-2.1442,-2.1438,-2.1431,-2.1428,-2.1422,-2.1416,-2.141,-2.1403,-2.1396,-2.1388,-2.138,-2.1377,-2.1374,-2.1375,-2.1375,-2.1374,-2.1372,-2.1373,-2.1377,-2.1377,-2.1377,-2.1377,-2.1377,-2.1377,-2.1464,-2.1459,-2.1455,-2.1448,-2.1444,-2.1438,-2.1434,-2.1429,-2.1424,-2.1416,-2.1411,-2.1406,-2.1398,-2.139,-2.1383,-2.1381,-2.1378,-2.1379,-2.1376,-2.1375,-2.1374,-2.1373,-2.1374,-2.1379,-2.1379,-2.1379,-2.1379,-2.1379]},{"header":{"parameterUnit":"m.s-1","parameterCategory":1,"la1":30.2991,"la2":30.254,"lo1":-89.0895,"lo2":-89.0444,"dy":0.0017,"dx":0.0017,"nx":28,"ny":28,"refTime":"2023-09-01T09:00:00:Z","depth":0,"parameterNumber":3,"parameterNumberName":"V-component_of_WINDS"},"data":[0,0,0,0,0,0,0,0,0,0,0,0,0,0,0,0,0,0,0,0,0,0,0,0,0,0,0,0,0,0,0,0,0,0,0,0,0,0,0,0,0,0,0,0,0,0,0,0,0,0,0,0,0,0,0,0,0,0,2.5256,2.5257,0,2.5347,2.5349,2.535,2.5326,2.5324,2.5323,2.5321,2.5409,2.5413,2.5417,0,0,0,0,0,0,0,0,0,0,0,0,0,2.5056,2.506,2.5256,2.5257,2.5258,2.5347,2.5349,2.535,2.5326,2.5324,2.5322,2.532,2.5408,2.5413,2.5418,0,0,0,0,0,0,0,0,0,0,0,0,0,2.5144,2.5061,2.5256,2.5258,2.5259,2.5347,2.5349,2.535,2.5327,2.5324,2.5321,2.5319,2.5406,2.5412,2.5418,2.5509,0,0,2.5437,2.5439,0,0,0,0,0,0,0,0,2.5139,2.5152,2.5256,2.5258,2.5259,2.5323,2.531,2.5403,2.5328,2.5301,2.5321,2.5318,2.5382,2.539,2.5413,2.5513,2.5517,2.5437,2.5441,2.5443,2.5445,0,0,0,0,0,0,0,2.5133,2.5148,2.5292,2.5258,2.5259,2.5252,2.5262,2.5328,2.5355,2.5303,2.5301,2.5313,2.5382,2.5407,2.5415,2.5518,2.5437,2.5442,2.5446,2.5448,2.5696,2.5699,0,0,0,0,0,0,2.5127,2.5143,2.5289,2.5295,2.5192,2.5258,2.5268,2.5305,2.5355,2.536,2.5315,2.5311,2.5398,2.5408,2.5418,2.5527,2.5443,2.5449,2.5452,2.5693,2.5697,2.57,0,0,0,0,0,0,2.5123,2.514,2.5286,2.5219,2.5236,2.5264,2.5305,2.5308,2.5333,2.5364,2.5368,2.5336,2.5397,2.5409,2.5487,2.553,2.5452,2.5457,2.569,2.5694,2.5698,2.5747,0,0,0,0,0,0,2.5117,2.5139,2.5175,2.522,2.524,2.5355,2.5308,2.5312,2.5344,2.534,2.5384,2.5389,2.5395,2.5478,2.5493,2.5537,2.5462,2.5686,2.5692,2.5697,2.5741,2.5752,2.5762,0,0,0,0,0,2.511,2.5184,2.5177,2.5195,2.5286,2.5357,2.5369,2.5376,2.5348,2.5383,2.5403,2.5388,2.5523,2.5486,2.5502,2.5549,2.5683,2.569,2.5696,2.5737,2.575,2.5761,0,0,0,0,0,0,2.5143,2.519,2.5183,2.5274,2.5312,2.5353,2.5399,2.539,2.5436,2.543,2.5436,2.5446,2.5525,2.5544,2.5502,2.5639,2.5598,2.5609,2.5623,2.5636,2.5646,2.564,2.5467,0,0,0,0,0,2.5161,2.5216,2.5254,2.533,2.535,2.5371,2.5402,2.5405,2.5444,2.5459,2.5484,2.5521,2.5572,2.5605,2.5653,2.5744,2.5752,2.5784,2.5794,2.5802,2.5811,2.5859,2.5873,2.5722,2.5722,2.5722,0,0,2.5198,2.5231,2.5265,2.5338,2.5368,2.5423,2.5385,2.5445,2.5486,2.5468,2.5543,2.5562,2.5603,2.5688,2.5726,2.5706,2.5854,2.581,2.5817,2.5821,2.5867,2.5882,2.5895,2.5726,2.5725,2.5725,0,0,2.5295,2.5326,2.5393,2.5424,2.547,2.5483,2.5499,2.5542,2.5554,2.563,2.5617,2.5664,2.5752,2.5782,2.5808,2.5915,2.5902,2.593,2.5983,2.603,2.6042,2.6053,2.6091,2.6104,2.5939,2.5939,2.5939,0,2.5335,2.5421,2.5428,2.549,2.5522,2.5509,2.5576,2.5604,2.5663,2.5684,2.5662,2.5771,2.5798,2.5888,2.5915,2.5937,2.5954,2.5926,2.604,2.6051,2.6061,2.6097,2.6111,2.5942,2.5942,2.5941,2.5941,0,2.5468,2.5527,2.5575,2.5634,2.5671,2.5735,2.575,2.5786,2.5785,2.58,2.5876,2.5908,2.5962,2.5983,2.5982,2.6073,2.606,2.6039,2.5999,2.6078,2.6112,2.6126,2.5947,2.5946,2.5945,2.5944,0,0,2.5589,2.5651,2.5669,2.5695,2.5744,2.5789,2.5851,2.5905,2.5936,2.5976,2.6028,2.6101,2.6082,2.6112,2.6114,2.6155,2.6237,2.6129,2.613,2.6148,2.6339,2.6355,2.6371,2.6229,2.6231,2.6234,2.6336,0,2.5691,2.5803,2.5811,2.5912,2.5966,2.5953,2.6007,2.6042,2.6057,2.6103,2.6119,2.6172,2.6142,2.616,2.6201,2.6219,2.6276,2.6211,2.6276,2.6278,2.6267,2.6389,2.6406,2.6501,2.6349,2.6351,2.6353,0,2.5825,2.5871,2.5977,2.6018,2.6041,2.609,2.614,2.6185,2.6223,2.6231,2.6264,2.626,2.6322,2.6279,2.6363,2.632,2.6346,2.6358,2.6362,2.6369,2.6321,2.6399,2.6532,2.6546,2.6374,2.6372,2.6371,0,2.5902,2.5991,2.6066,2.6088,2.6138,2.6172,2.6194,2.623,2.6262,2.6305,2.6325,2.6374,2.6401,2.6438,2.6446,2.6414,2.653,2.6488,2.6538,2.6538,2.6564,2.6562,2.6703,2.658,2.658,2.6579,2.6579,0,2.6015,2.6081,2.6102,2.6148,2.622,2.6227,2.6298,2.6317,2.6349,2.6397,2.6389,2.6434,2.6442,2.6488,2.6494,2.6563,2.6575,2.6582,2.6583,2.6583,2.6582,2.6601,2.6595,2.6583,2.6582,2.6582,2.6581,0,2.6115,2.6132,2.6213,2.6253,2.6264,2.6316,2.635,2.6393,2.6406,2.6468,2.6482,2.6503,2.6557,2.6569,2.6632,2.6636,2.6718,2.6712,2.6706,2.6706,2.6755,2.675,2.6913,2.6934,2.6797,2.6798,2.6799,0,2.6187,2.6237,2.6283,2.6316,2.6339,2.6392,2.6425,2.6432,2.6466,2.6513,2.6551,2.6604,2.6647,2.6733,2.6753,2.6801,2.6796,2.685,2.6803,2.6802,2.6797,2.6794,2.6799,2.6859,2.686,2.6862,2.6863,0,2.6312,2.6317,2.6366,2.6417,2.6457,2.6497,2.6535,2.6562,2.6575,2.6613,2.6669,2.6702,2.6767,2.682,2.6868,2.6888,2.6877,2.6877,2.6891,2.6892,2.6887,2.689,2.6731,2.6873,2.6872,2.6872,2.6871,2.6871,2.64,2.6444,2.6483,2.6537,2.6567,2.6603,2.6645,2.6664,2.6712,2.6767,2.6767,2.6828,2.6863,2.6927,2.695,2.6996,2.6979,2.6999,2.7005,2.701,2.7014,2.6879,2.7005,2.7004,2.7004,2.7004,2.7003,0,2.6525,2.6549,2.6599,2.6653,2.6695,2.6682,2.6724,2.6759,2.6813,2.6848,2.689,2.6954,2.7004,2.7027,2.7077,2.7109,2.7105,2.7122,2.712,2.7124,2.7027,2.701,2.7124,2.7124,2.7124,2.7124,2.7124,2.7124,2.6595,2.6668,2.6678,2.6766,2.6789,2.685,2.6874,2.6906,2.6934,2.7006,2.7048,2.7064,2.7093,2.7144,2.7189,2.7195,2.7213,2.7232,2.7235,2.7143,2.7131,2.712,2.7104,2.7236,2.7236,2.7329,2.733,2.733]}]]